[[{"header":{"parameterUnit":"m.s-1","parameterCategory":2,"la1":30.2991,"la2":30.254,"lo1":-89.0895,"lo2":-89.0444,"dy":0.0017,"dx":0.0017,"nx":28,"ny":28,"refTime":"2024-04-29T03:00:00:Z","depth":"0","parameterNumber":2,"parameterNumberName":"U-component_of_CURRENTS"},"data":[0,0,0,0,0,0,0,0,0,0,0,0,0,0,0,0,0,0,0,0,0,0,0,0,0,0,0,0,0,0,0,0,0,0,0,0,0,0,0,0,0,0,0,0,0,0,0,0,0,0,0,0,0,0,0,0,0,0,0.2422,0.2422,0,0.2389,0.2389,0.2388,0.2355,0.2355,0.2355,0.2355,0.2286,0.2284,0.2283,0,0,0,0,0,0,0,0,0,0,0,0,0,0.241,0.241,0.2422,0.2422,0.2422,0.239,0.2389,0.2388,0.2355,0.2355,0.2355,0.2355,0.2287,0.2285,0.2282,0,0,0,0,0,0,0,0,0,0,0,0,0,0.2397,0.241,0.2422,0.2405,0.2403,0.239,0.2389,0.2388,0.2355,0.2355,0.2355,0.2355,0.2287,0.2285,0.2282,0.2269,0,0,0.2274,0.2273,0,0,0,0,0,0,0,0,0.2397,0.2397,0.2407,0.2406,0.2404,0.2379,0.2359,0.2348,0.2355,0.2369,0.2355,0.2355,0.2316,0.2311,0.2301,0.2266,0.2263,0.2274,0.2272,0.2271,0.2271,0,0,0,0,0,0,0,0.2398,0.2398,0.2406,0.2407,0.2405,0.2382,0.238,0.2356,0.2341,0.2368,0.2367,0.2369,0.2315,0.2304,0.2299,0.2262,0.2274,0.2272,0.227,0.2269,0.2253,0.2254,0,0,0,0,0,0,0.2413,0.2399,0.2407,0.2405,0.2404,0.2383,0.2381,0.2384,0.2342,0.2336,0.2369,0.2368,0.2308,0.2302,0.2296,0.2298,0.2271,0.2269,0.2267,0.2252,0.2253,0.2254,0,0,0,0,0,0,0.2412,0.2414,0.2408,0.2404,0.2402,0.2384,0.2388,0.2384,0.2378,0.2343,0.2337,0.2369,0.2308,0.23,0.2287,0.2295,0.2268,0.2265,0.2251,0.2252,0.2254,0.2289,0,0,0,0,0,0,0.2412,0.2414,0.2421,0.2405,0.2403,0.2409,0.2389,0.2384,0.2381,0.2379,0.2341,0.2334,0.2307,0.2292,0.2285,0.229,0.2263,0.2249,0.2251,0.2253,0.2286,0.2292,0.2296,0,0,0,0,0,0.2412,0.2424,0.2421,0.2422,0.2413,0.241,0.2406,0.239,0.2382,0.2383,0.2361,0.2335,0.2301,0.229,0.2282,0.2287,0.2248,0.2251,0.2253,0.2284,0.2291,0.2296,0,0,0,0,0,0,0.2414,0.2422,0.2418,0.243,0.2425,0.2406,0.2407,0.2397,0.238,0.2377,0.2342,0.2334,0.2329,0.2308,0.2298,0.2293,0.2273,0.2274,0.23,0.2305,0.231,0.2309,0.2261,0,0,0,0,0,0.2422,0.2435,0.2433,0.2439,0.2442,0.2425,0.2422,0.2413,0.2398,0.239,0.2364,0.2344,0.2332,0.2319,0.2304,0.2294,0.2298,0.2297,0.2302,0.2306,0.2302,0.2337,0.2345,0.2263,0.2263,0.2263,0,0,0.2419,0.2429,0.2433,0.2442,0.2435,0.2428,0.2422,0.2423,0.2412,0.2385,0.2363,0.2359,0.2336,0.2329,0.2325,0.2311,0.2333,0.2309,0.2312,0.2306,0.2341,0.2349,0.2356,0.2265,0.2264,0.2264,0,0,0.2422,0.2436,0.2446,0.2445,0.2449,0.244,0.2444,0.2432,0.2424,0.2411,0.2396,0.24,0.2367,0.2358,0.2348,0.2373,0.2362,0.2372,0.2385,0.242,0.2427,0.2433,0.2452,0.246,0.2369,0.2369,0.2369,0,0.2424,0.2431,0.2446,0.245,0.2447,0.2446,0.2442,0.2433,0.2415,0.2422,0.241,0.2402,0.2379,0.2383,0.2389,0.2381,0.2398,0.2361,0.2426,0.2432,0.2438,0.2456,0.2464,0.2371,0.2371,0.2371,0.237,0,0.2426,0.2429,0.2435,0.2439,0.244,0.244,0.2434,0.2437,0.2433,0.243,0.2444,0.2428,0.2428,0.2425,0.2404,0.2436,0.2435,0.2433,0.2409,0.2448,0.2465,0.2473,0.2374,0.2373,0.2373,0.2372,0,0,0.2443,0.2438,0.2438,0.2426,0.2436,0.2427,0.2435,0.2443,0.2446,0.245,0.2461,0.2456,0.247,0.2461,0.2453,0.247,0.2518,0.2466,0.2467,0.2481,0.2594,0.2578,0.2584,0.2536,0.2537,0.2538,0.2591,0,0.244,0.2424,0.2437,0.2415,0.2405,0.242,0.2419,0.243,0.2442,0.2452,0.2475,0.2476,0.2477,0.2478,0.2505,0.2513,0.254,0.2504,0.2557,0.2558,0.2536,0.2592,0.2488,0.2526,0.2598,0.2599,0.26,0,0.2433,0.243,0.2405,0.2393,0.2393,0.2385,0.2398,0.24,0.2437,0.2454,0.2495,0.2505,0.2537,0.2525,0.2588,0.257,0.2587,0.2593,0.2596,0.257,0.2556,0.2498,0.2536,0.2433,0.2611,0.2611,0.261,0,0.2408,0.24,0.2373,0.2367,0.2364,0.2371,0.2375,0.2406,0.2417,0.2459,0.2485,0.2532,0.2555,0.2597,0.263,0.2612,0.2696,0.2674,0.2679,0.2677,0.2591,0.258,0.2529,0.2724,0.2724,0.2724,0.2724,0,0.239,0.2368,0.2354,0.2342,0.2325,0.2339,0.2339,0.2363,0.2404,0.2426,0.2484,0.2514,0.2577,0.2633,0.2653,0.2702,0.2729,0.2691,0.2697,0.2601,0.2591,0.2499,0.2416,0.2726,0.2726,0.2725,0.2725,0,0.235,0.234,0.2312,0.231,0.2307,0.2293,0.2311,0.2315,0.2371,0.2407,0.2426,0.2516,0.2591,0.2656,0.2719,0.2731,0.2657,0.2777,0.2654,0.2645,0.253,0.2452,0.2254,0.2191,0.2777,0.2777,0.2777,0,0.2315,0.2298,0.228,0.2265,0.2263,0.2252,0.2248,0.229,0.2306,0.2403,0.242,0.2516,0.2566,0.2675,0.2715,0.2767,0.2644,0.2695,0.2637,0.2518,0.2437,0.2262,0.2212,0.2537,0.2535,0.2533,0.2532,0,0.2273,0.2268,0.2252,0.2221,0.2205,0.2182,0.2189,0.2194,0.2257,0.23,0.2357,0.2404,0.2536,0.255,0.265,0.2665,0.2498,0.2664,0.2571,0.2271,0.2043,0.1988,0.25,0.2518,0.2519,0.252,0.2521,0.2522,0.2242,0.2218,0.2198,0.216,0.214,0.2104,0.2063,0.209,0.21,0.2139,0.2246,0.2278,0.2379,0.2498,0.2499,0.2439,0.2395,0.236,0.2286,0.2129,0.2021,0.2502,0.251,0.2511,0.2512,0.2513,0.2514,0,0.2185,0.2167,0.2135,0.2078,0.2024,0.2038,0.2009,0.1959,0.1935,0.2009,0.2046,0.2091,0.2127,0.2187,0.2181,0.207,0.1955,0.1998,0.1724,0.171,0.218,0.2127,0.2013,0.2013,0.2014,0.2014,0.2014,0.2014,0.2163,0.2111,0.2084,0.197,0.1929,0.1823,0.1785,0.1735,0.1745,0.1709,0.1712,0.1769,0.1818,0.1782,0.1694,0.1676,0.1478,0.1375,0.1378,0.1708,0.1736,0.1762,0.1696,0.1494,0.1493,0.0846,0.0841,0.0837]},{"header":{"parameterUnit":"m.s-1","parameterCategory":2,"la1":30.2991,"la2":30.254,"lo1":-89.0895,"lo2":-89.0444,"dy":0.0017,"dx":0.0017,"nx":28,"ny":28,"refTime":"2024-04-29T03:00:00:Z","depth":"0","parameterNumber":3,"parameterNumberName":"V-component_of_CURRENTS"},"data":[0,0,0,0,0,0,0,0,0,0,0,0,0,0,0,0,0,0,0,0,0,0,0,0,0,0,0,0,0,0,0,0,0,0,0,0,0,0,0,0,0,0,0,0,0,0,0,0,0,0,0,0,0,0,0,0,0,0,0.0204,0.0204,0,0.0163,0.0163,0.0162,0.014,0.014,0.014,0.014,0.0085,0.0084,0.0082,0,0,0,0,0,0,0,0,0,0,0,0,0,0.0225,0.0225,0.0204,0.0204,0.0204,0.0164,0.0163,0.0162,0.014,0.014,0.014,0.014,0.0086,0.0084,0.0082,0,0,0,0,0,0,0,0,0,0,0,0,0,0.0202,0.0225,0.0205,0.0189,0.0187,0.0164,0.0163,0.0162,0.014,0.014,0.014,0.014,0.0086,0.0084,0.0082,0.0066,0,0,0.0075,0.0074,0,0,0,0,0,0,0,0,0.0204,0.0201,0.0191,0.019,0.0188,0.0158,0.015,0.013,0.014,0.0156,0.014,0.014,0.0109,0.0105,0.0095,0.0064,0.0061,0.0075,0.0073,0.0072,0.0072,0,0,0,0,0,0,0,0.0205,0.0203,0.0187,0.0191,0.0189,0.017,0.0167,0.0146,0.0131,0.0155,0.0153,0.0151,0.0108,0.0097,0.0094,0.006,0.0075,0.0073,0.0071,0.007,0.0021,0.0021,0,0,0,0,0,0,0.0215,0.0205,0.0188,0.0186,0.0197,0.017,0.0167,0.0166,0.0132,0.0127,0.0151,0.015,0.0101,0.0096,0.0092,0.009,0.0072,0.007,0.0069,0.0021,0.0021,0.0021,0,0,0,0,0,0,0.0215,0.0214,0.019,0.0195,0.0191,0.017,0.0169,0.0165,0.0159,0.0129,0.0124,0.0149,0.0101,0.0095,0.0078,0.0087,0.0069,0.0067,0.0021,0.0021,0.0021,0.0075,0,0,0,0,0,0,0.0216,0.0214,0.0215,0.0196,0.0191,0.0182,0.0169,0.0165,0.0158,0.0156,0.0126,0.0121,0.0101,0.0082,0.0076,0.0084,0.0065,0.0021,0.0021,0.0021,0.0073,0.0077,0.008,0,0,0,0,0,0.0217,0.0223,0.0216,0.0214,0.0194,0.0182,0.0178,0.0162,0.0158,0.0156,0.0137,0.0122,0.0078,0.008,0.0073,0.0081,0.0021,0.0021,0.0021,0.0072,0.0076,0.008,0,0,0,0,0,0,0.0234,0.0221,0.0212,0.0214,0.0201,0.0179,0.0177,0.0166,0.0149,0.015,0.0121,0.0115,0.0103,0.0082,0.0085,0.0066,0.0047,0.0046,0.0088,0.0092,0.0095,0.0115,0.0063,0,0,0,0,0,0.0238,0.0238,0.0221,0.0222,0.0218,0.0198,0.0191,0.0182,0.0166,0.0158,0.0137,0.0115,0.0097,0.0088,0.0066,0.0056,0.004,0.0055,0.0059,0.0062,0.0072,0.0055,0.0058,0.0022,0.0022,0.0022,0,0,0.0245,0.0238,0.0238,0.0226,0.0215,0.0216,0.0194,0.019,0.0193,0.0155,0.0151,0.0125,0.0096,0.0086,0.0079,0.0071,0.0063,0.0062,0.0065,0.0074,0.0056,0.0059,0.0063,0.0022,0.0022,0.0022,0,0,0.0263,0.0253,0.0261,0.0253,0.0242,0.0231,0.0233,0.0214,0.0208,0.0196,0.0173,0.0156,0.0123,0.011,0.0098,0.0106,0.0081,0.0096,0.0132,0.0115,0.0118,0.0121,0.0106,0.0107,0.0099,0.0099,0.0099,0,0.0274,0.0279,0.0261,0.0266,0.0267,0.0243,0.0254,0.0243,0.0221,0.0223,0.0203,0.0166,0.0138,0.0136,0.0137,0.0116,0.0102,0.0121,0.0121,0.0123,0.0125,0.0109,0.0109,0.0102,0.0102,0.0101,0.0101,0,0.0295,0.03,0.0305,0.0306,0.0303,0.0308,0.0296,0.0293,0.0279,0.0269,0.026,0.0219,0.02,0.0185,0.0162,0.0164,0.0148,0.0128,0.0115,0.0132,0.0114,0.0113,0.0106,0.0105,0.0104,0.0103,0,0,0.0322,0.0321,0.0323,0.0335,0.0327,0.0331,0.0338,0.0341,0.0358,0.0325,0.0339,0.0298,0.0277,0.0262,0.0229,0.0212,0.0206,0.0179,0.0177,0.0173,0.0171,0.0181,0.0181,0.0185,0.0185,0.0186,0.0153,0,0.0346,0.0369,0.036,0.0387,0.0401,0.0386,0.0399,0.04,0.0392,0.0398,0.0361,0.0354,0.0307,0.0298,0.0275,0.0226,0.0206,0.0216,0.0147,0.0145,0.016,0.0182,0.0274,0.0255,0.0153,0.0152,0.0152,0,0.0368,0.0387,0.0416,0.0438,0.0443,0.0456,0.0481,0.0488,0.0489,0.0482,0.0469,0.0436,0.0411,0.0361,0.0295,0.0304,0.0244,0.02,0.0197,0.0191,0.0155,0.022,0.0257,0.0213,0.0151,0.0151,0.0151,0,0.04,0.0423,0.0452,0.0458,0.0481,0.0498,0.0508,0.0518,0.0539,0.0538,0.0553,0.0509,0.0495,0.0418,0.0327,0.0309,0.0254,0.0215,0.0168,0.0167,0.0225,0.0229,0.0222,0.0165,0.0165,0.0165,0.0166,0,0.0428,0.0452,0.0472,0.0495,0.0541,0.0539,0.0586,0.059,0.061,0.0654,0.0602,0.0623,0.0508,0.046,0.036,0.0277,0.0278,0.0186,0.0165,0.0245,0.0252,0.0198,0.0171,0.0164,0.0164,0.0165,0.0165,0,0.0454,0.0463,0.0505,0.0543,0.0558,0.0591,0.0634,0.0669,0.0683,0.0738,0.074,0.0711,0.066,0.0548,0.043,0.0335,0.023,0.0204,0.0307,0.03,0.0209,0.0183,0.0157,0.0114,0.0148,0.0149,0.0149,0,0.0466,0.0493,0.0545,0.0575,0.0595,0.0642,0.0678,0.0702,0.0746,0.08,0.0833,0.0804,0.0803,0.0645,0.0498,0.0349,0.0262,0.0294,0.0271,0.0231,0.0186,0.016,0.0123,0.0365,0.0367,0.0368,0.0369,0,0.0506,0.0523,0.0561,0.0621,0.0666,0.0718,0.0773,0.0821,0.0867,0.0923,0.0988,0.0993,0.0887,0.0802,0.0599,0.048,0.0304,0.0319,0.026,0.0348,0.034,0.0281,0.0349,0.0383,0.0382,0.0381,0.038,0.0379,0.0536,0.0563,0.0612,0.0665,0.0719,0.0787,0.0834,0.0909,0.0995,0.1093,0.1107,0.1163,0.1076,0.0836,0.066,0.0449,0.0394,0.0375,0.0343,0.0316,0.0294,0.0391,0.0409,0.0408,0.0407,0.0406,0.0405,0,0.057,0.0598,0.065,0.0714,0.077,0.0795,0.0891,0.0944,0.1054,0.1183,0.1255,0.1317,0.1186,0.0986,0.0739,0.0537,0.0427,0.0412,0.041,0.0361,0.0447,0.0477,0.0535,0.0535,0.0535,0.0535,0.0535,0.0535,0.0593,0.0638,0.0656,0.0743,0.0788,0.0858,0.0912,0.1006,0.1111,0.1266,0.1371,0.144,0.1411,0.1011,0.0704,0.0579,0.0416,0.0405,0.026,0.0348,0.0343,0.0337,0.0358,0.039,0.039,0.0219,0.0217,0.0216]}],[{"header":{"parameterUnit":"m.s-1","parameterCategory":2,"la1":30.2991,"la2":30.254,"lo1":-89.0895,"lo2":-89.0444,"dy":0.0017,"dx":0.0017,"nx":28,"ny":28,"refTime":"2024-04-29T03:00:00:Z","depth":"2","parameterNumber":2,"parameterNumberName":"U-component_of_CURRENTS"},"data":[0,0,0,0,0,0,0,0,0,0,0,0,0,0,0,0,0,0,0,0,0,0,0,0,0,0,0,0,0,0,0,0,0,0,0,0,0,0,0,0,0,0,0,0,0,0,0,0,0,0,0,0,0,0,0,0,0,0,0.2439,0.2439,0,0.2407,0.2407,0.2406,0.2375,0.2375,0.2375,0.2375,0.231,0.2308,0.2306,0,0,0,0,0,0,0,0,0,0,0,0,0,0.2416,0.2417,0.2439,0.2439,0.2439,0.2408,0.2407,0.2406,0.2375,0.2375,0.2375,0.2375,0.231,0.2308,0.2306,0,0,0,0,0,0,0,0,0,0,0,0,0,0.2406,0.2417,0.2439,0.2422,0.242,0.2408,0.2407,0.2406,0.2375,0.2375,0.2375,0.2375,0.2311,0.2308,0.2306,0.2293,0,0,0.2298,0.2297,0,0,0,0,0,0,0,0,0.2407,0.2407,0.2424,0.2423,0.2421,0.2398,0.2375,0.2368,0.2375,0.2389,0.2375,0.2375,0.2338,0.2334,0.2324,0.229,0.2288,0.2298,0.2297,0.2296,0.2295,0,0,0,0,0,0,0,0.2408,0.2408,0.2423,0.2425,0.2423,0.2397,0.2396,0.2373,0.2361,0.2387,0.2386,0.2388,0.2337,0.2326,0.2322,0.2287,0.2298,0.2296,0.2294,0.2294,0.228,0.2281,0,0,0,0,0,0,0.2422,0.2409,0.2424,0.2422,0.2418,0.2398,0.2397,0.2403,0.2362,0.2357,0.2388,0.2387,0.233,0.2325,0.2319,0.2322,0.2296,0.2293,0.2292,0.2279,0.228,0.2282,0,0,0,0,0,0,0.2422,0.2424,0.2425,0.2417,0.2416,0.24,0.2406,0.2402,0.2397,0.2364,0.2357,0.2389,0.233,0.2323,0.2311,0.2319,0.2292,0.229,0.2278,0.228,0.2281,0.2315,0,0,0,0,0,0,0.2421,0.2424,0.2433,0.2418,0.2417,0.2426,0.2407,0.2402,0.24,0.2398,0.2362,0.2355,0.2329,0.2315,0.2309,0.2315,0.2288,0.2276,0.2279,0.2281,0.2313,0.2318,0.2323,0,0,0,0,0,0.2421,0.2436,0.2434,0.2435,0.243,0.2427,0.2424,0.2409,0.2401,0.2402,0.2382,0.2357,0.2325,0.2314,0.2306,0.2312,0.2275,0.2278,0.228,0.2311,0.2317,0.2322,0,0,0,0,0,0,0.2422,0.2434,0.2431,0.2447,0.2442,0.2423,0.2425,0.2415,0.24,0.2397,0.2364,0.2356,0.2352,0.2332,0.2322,0.2318,0.2299,0.23,0.2325,0.233,0.2335,0.2333,0.2286,0,0,0,0,0,0.2431,0.2447,0.2447,0.2456,0.2459,0.2443,0.244,0.2431,0.2417,0.241,0.2385,0.2366,0.2356,0.2344,0.233,0.232,0.2324,0.2323,0.2328,0.2332,0.2328,0.2364,0.2371,0.229,0.229,0.229,0,0,0.2427,0.2441,0.2445,0.2458,0.2451,0.2446,0.244,0.2441,0.243,0.2405,0.2385,0.2381,0.236,0.2354,0.235,0.2336,0.2359,0.2335,0.2339,0.2332,0.2367,0.2375,0.2382,0.2292,0.2291,0.2291,0,0,0.2431,0.2448,0.2461,0.246,0.2466,0.2457,0.2462,0.245,0.2443,0.2431,0.2417,0.2422,0.2391,0.2383,0.2374,0.2398,0.2388,0.2398,0.2411,0.2446,0.2452,0.2458,0.2477,0.2484,0.2395,0.2395,0.2395,0,0.243,0.2443,0.246,0.2466,0.2464,0.2463,0.246,0.2451,0.2435,0.2442,0.243,0.2425,0.2403,0.2408,0.2414,0.2407,0.2424,0.2387,0.2452,0.2458,0.2463,0.2481,0.2488,0.2397,0.2397,0.2397,0.2396,0,0.2436,0.2442,0.2448,0.2456,0.2457,0.2457,0.2453,0.2457,0.2453,0.245,0.2466,0.245,0.2452,0.2449,0.2429,0.2462,0.246,0.2458,0.2435,0.2473,0.2489,0.2497,0.24,0.2399,0.2399,0.2398,0,0,0.2443,0.2452,0.2452,0.2442,0.2453,0.2445,0.2454,0.2463,0.2466,0.2471,0.2483,0.2479,0.2493,0.2485,0.2478,0.2495,0.2542,0.2491,0.2491,0.2505,0.2617,0.2598,0.2604,0.256,0.2561,0.2562,0.2613,0,0.2439,0.2437,0.2452,0.2432,0.2423,0.2439,0.2439,0.245,0.2463,0.2474,0.2496,0.2499,0.25,0.2502,0.2529,0.2537,0.2564,0.2528,0.2581,0.2582,0.2557,0.2613,0.2346,0.2369,0.262,0.2622,0.2622,0,0.2432,0.2434,0.2421,0.2411,0.2412,0.2405,0.2419,0.2421,0.2459,0.2476,0.2517,0.2528,0.2561,0.2549,0.2611,0.2593,0.261,0.2616,0.2619,0.2591,0.2577,0.2371,0.2372,0.2635,0.2634,0.2633,0.2632,0,0.2406,0.2403,0.2389,0.2384,0.2384,0.2391,0.2396,0.2428,0.2439,0.2482,0.2508,0.2555,0.2579,0.2619,0.2652,0.2635,0.2717,0.2696,0.2698,0.2696,0.2473,0.245,0.2746,0.2746,0.2745,0.2745,0.2745,0,0.2389,0.2372,0.2371,0.236,0.2345,0.236,0.2362,0.2386,0.2427,0.2449,0.2508,0.2537,0.26,0.2656,0.2674,0.2722,0.275,0.271,0.2716,0.2479,0.2457,0.2685,0.2677,0.2747,0.2747,0.2746,0.2746,0,0.2353,0.2356,0.2331,0.2331,0.2328,0.2316,0.2335,0.2339,0.2396,0.2432,0.245,0.254,0.2613,0.2677,0.2739,0.275,0.2785,0.2793,0.2509,0.2481,0.2729,0.2723,0.2791,0.2791,0.2791,0.2791,0.2791,0,0.2331,0.2315,0.2299,0.2285,0.2285,0.2275,0.2272,0.2315,0.2332,0.2428,0.2444,0.2539,0.2583,0.2689,0.2689,0.2729,0.2803,0.2539,0.246,0.2739,0.2738,0.2731,0.2725,0.2169,0.2164,0.216,0.2156,0,0.2292,0.2286,0.2272,0.2243,0.2228,0.2206,0.2214,0.222,0.2283,0.2321,0.2377,0.2419,0.2512,0.2431,0.2513,0.2502,0.251,0.2459,0.2819,0.2219,0.2163,0.2159,0.2171,0.2119,0.2123,0.2125,0.2127,0.2129,0.2261,0.2238,0.2219,0.2182,0.2164,0.213,0.209,0.2108,0.2114,0.2132,0.2236,0.2222,0.2255,0.2233,0.2184,0.2154,0.234,0.2238,0.2246,0.2259,0.2198,0.2148,0.2088,0.2091,0.2094,0.2097,0.2099,0,0.2197,0.2188,0.2158,0.2102,0.2043,0.2064,0.2037,0.1982,0.1943,0.1973,0.198,0.184,0.178,0.1833,0.1709,0.1745,0.1673,0.1692,0.1554,0.1594,0.1628,0.153,0.1245,0.1243,0.124,0.1238,0,0,0.2172,0.2118,0.2092,0.1981,0.1949,0.1842,0.1805,0.1748,0.1728,0.1662,0.1615,0.1692,0.177,0.1481,0.1447,0.132,0.1442,0.1265,0.1947,0.1823,0.1854,0.1943,0.1838,0,0,0,0,0]},{"header":{"parameterUnit":"m.s-1","parameterCategory":2,"la1":30.2991,"la2":30.254,"lo1":-89.0895,"lo2":-89.0444,"dy":0.0017,"dx":0.0017,"nx":28,"ny":28,"refTime":"2024-04-29T03:00:00:Z","depth":"2","parameterNumber":3,"parameterNumberName":"V-component_of_CURRENTS"},"data":[0,0,0,0,0,0,0,0,0,0,0,0,0,0,0,0,0,0,0,0,0,0,0,0,0,0,0,0,0,0,0,0,0,0,0,0,0,0,0,0,0,0,0,0,0,0,0,0,0,0,0,0,0,0,0,0,0,0,0.0174,0.0174,0,0.0133,0.0133,0.0132,0.0109,0.0109,0.0109,0.0109,0.0055,0.0054,0.0052,0,0,0,0,0,0,0,0,0,0,0,0,0,0.019,0.019,0.0174,0.0174,0.0174,0.0133,0.0133,0.0132,0.0109,0.0109,0.0109,0.0109,0.0056,0.0054,0.0052,0,0,0,0,0,0,0,0,0,0,0,0,0,0.0168,0.019,0.0174,0.0158,0.0157,0.0133,0.0133,0.0132,0.0109,0.0109,0.0109,0.0109,0.0056,0.0054,0.0052,0.0037,0,0,0.0045,0.0044,0,0,0,0,0,0,0,0,0.0169,0.0167,0.0161,0.0159,0.0157,0.0128,0.0118,0.01,0.0109,0.0126,0.0109,0.0109,0.0079,0.0075,0.0065,0.0034,0.0032,0.0045,0.0044,0.0043,0.0042,0,0,0,0,0,0,0,0.0171,0.0169,0.0157,0.0161,0.0158,0.0138,0.0136,0.0114,0.0101,0.0124,0.0123,0.012,0.0078,0.0068,0.0064,0.0031,0.0045,0.0043,0.0042,0.0041,-0.0008,-0.0008,0,0,0,0,0,0,0.0181,0.0171,0.0158,0.0156,0.0165,0.0138,0.0135,0.0136,0.0102,0.0097,0.012,0.0119,0.0071,0.0067,0.0062,0.006,0.0043,0.0041,0.0039,-0.0008,-0.0008,-0.0008,0,0,0,0,0,0,0.0181,0.018,0.016,0.0163,0.0159,0.0138,0.0139,0.0135,0.0129,0.0099,0.0094,0.0119,0.0071,0.0065,0.0048,0.0057,0.004,0.0038,-0.0008,-0.0008,-0.0008,0.0045,0,0,0,0,0,0,0.0182,0.0181,0.0183,0.0164,0.0159,0.0152,0.0139,0.0134,0.0127,0.0126,0.0096,0.0091,0.0071,0.0052,0.0046,0.0054,0.0036,-0.0008,-0.0008,-0.0008,0.0044,0.0047,0.005,0,0,0,0,0,0.0183,0.019,0.0184,0.0182,0.0164,0.0152,0.0148,0.0132,0.0128,0.0126,0.0107,0.0092,0.0048,0.005,0.0043,0.0051,-0.0008,-0.0008,-0.0008,0.0042,0.0046,0.005,0,0,0,0,0,0,0.0199,0.0188,0.018,0.0184,0.0171,0.0149,0.0147,0.0136,0.0119,0.012,0.0091,0.0085,0.0073,0.0052,0.0055,0.0036,0.0018,0.0017,0.0058,0.0062,0.0065,0.0084,0.0034,0,0,0,0,0,0.0204,0.0206,0.019,0.0193,0.0188,0.0168,0.0161,0.0152,0.0136,0.0129,0.0107,0.0085,0.0067,0.0058,0.0036,0.0026,0.001,0.0026,0.0029,0.0032,0.0042,0.0024,0.0027,-0.0007,-0.0007,-0.0007,0,0,0.021,0.0205,0.0206,0.0196,0.0185,0.0186,0.0164,0.016,0.0163,0.0125,0.0121,0.0095,0.0066,0.0056,0.0049,0.0041,0.0033,0.0032,0.0035,0.0044,0.0025,0.0028,0.0031,-0.0007,-0.0007,-0.0007,0,0,0.0229,0.0222,0.023,0.0222,0.0212,0.0201,0.0203,0.0184,0.0178,0.0166,0.0143,0.0126,0.0093,0.0079,0.0067,0.0075,0.0051,0.0065,0.01,0.0083,0.0086,0.0088,0.0073,0.0074,0.0069,0.0069,0.0069,0,0.0238,0.0246,0.023,0.0236,0.0236,0.0213,0.0223,0.0213,0.0191,0.0192,0.0172,0.0135,0.0107,0.0104,0.0105,0.0085,0.0071,0.0089,0.0089,0.0091,0.0093,0.0076,0.0077,0.0071,0.0071,0.0071,0.0071,0,0.0261,0.0267,0.0272,0.0275,0.0272,0.0277,0.0264,0.0261,0.0248,0.0237,0.0227,0.0187,0.0168,0.0153,0.013,0.0131,0.0115,0.0095,0.0083,0.01,0.0081,0.008,0.0075,0.0074,0.0073,0.0073,0,0,0.0282,0.0289,0.0291,0.0302,0.0294,0.0299,0.0305,0.0307,0.0323,0.029,0.0303,0.0262,0.0242,0.0227,0.0195,0.0177,0.017,0.0145,0.0143,0.0139,0.0135,0.0145,0.0145,0.015,0.015,0.0151,0.0118,0,0.0305,0.0334,0.0327,0.0353,0.0367,0.0352,0.0364,0.0363,0.0356,0.036,0.0323,0.0316,0.0271,0.0262,0.0239,0.019,0.017,0.0181,0.0112,0.011,0.0124,0.0145,0.0124,0.0095,0.0117,0.0116,0.0116,0,0.0325,0.0346,0.0382,0.0402,0.0407,0.042,0.0442,0.0449,0.0449,0.0442,0.0428,0.0396,0.037,0.0323,0.0257,0.0266,0.0207,0.0163,0.016,0.0154,0.0119,0.008,0.0093,0.0115,0.0115,0.0115,0.0115,0,0.0355,0.038,0.0415,0.0421,0.0443,0.0459,0.0469,0.0478,0.0498,0.0496,0.0511,0.0467,0.0453,0.0377,0.0287,0.027,0.0213,0.0175,0.0129,0.0128,0.009,0.0086,0.0126,0.0126,0.0126,0.0126,0.0126,0,0.0384,0.0409,0.0435,0.0458,0.0502,0.05,0.0546,0.0549,0.0568,0.0609,0.0559,0.0578,0.0465,0.0418,0.0319,0.0236,0.0237,0.0146,0.0126,0.0107,0.0106,0.0104,0.0102,0.0125,0.0125,0.0125,0.0125,0,0.0411,0.0427,0.0468,0.0505,0.0519,0.0551,0.0593,0.0627,0.064,0.0692,0.0694,0.0665,0.0614,0.0503,0.0386,0.0292,0.0198,0.0162,0.0153,0.0134,0.0112,0.0113,0.0106,0.0106,0.0106,0.0107,0.0107,0,0.043,0.0458,0.0507,0.0537,0.0556,0.0602,0.0637,0.066,0.0702,0.0753,0.0785,0.0755,0.0748,0.0591,0.0418,0.0261,0.0233,0.0134,0.0096,0.0132,0.0112,0.0113,0.0113,0.0057,0.0057,0.0057,0.0056,0,0.047,0.0486,0.0524,0.0582,0.0626,0.0676,0.073,0.0776,0.082,0.0868,0.0929,0.0929,0.0798,0.0632,0.0419,0.0303,0.0158,0.0125,0.0162,0.0077,0.0086,0.0067,0.0069,0.0054,0.0055,0.0055,0.0055,0.0055,0.05,0.0526,0.0573,0.0625,0.0678,0.0744,0.0789,0.083,0.0902,0.0932,0.0987,0.0943,0.0813,0.0507,0.0353,0.0161,0.0178,0.0072,0.0072,0.0073,0.0085,0.0095,0.0067,0.0067,0.0067,0.0067,0.0068,0,0.0521,0.0559,0.061,0.0673,0.071,0.0753,0.0845,0.0839,0.0893,0.0918,0.0936,0.0777,0.0637,0.0477,0.0199,0.0066,0.0032,0.0006,-0.0014,-0.001,-0.0007,-0.0,-0.0041,-0.0041,-0.0042,-0.0043,0,0,0.0539,0.0577,0.0594,0.0668,0.0725,0.0747,0.0799,0.0793,0.0789,0.0762,0.0735,0.074,0.0626,0.0398,0.0237,0.0086,0.0054,0.0045,0.0144,0.0142,0.0146,0.0044,0.0061,0,0,0,0,0]}],[{"header":{"parameterUnit":"m.s-1","parameterCategory":2,"la1":30.2991,"la2":30.254,"lo1":-89.0895,"lo2":-89.0444,"dy":0.0017,"dx":0.0017,"nx":28,"ny":28,"refTime":"2024-04-29T03:00:00:Z","depth":"4","parameterNumber":2,"parameterNumberName":"U-component_of_CURRENTS"},"data":[0,0,0,0,0,0,0,0,0,0,0,0,0,0,0,0,0,0,0,0,0,0,0,0,0,0,0,0,0,0,0,0,0,0,0,0,0,0,0,0,0,0,0,0,0,0,0,0,0,0,0,0,0,0,0,0,0,0,0.1459,0.1459,0,0.1517,0.1518,0.1518,0.1568,0.1569,0.157,0.157,0.1647,0.1649,0.165,0,0,0,0,0,0,0,0,0,0,0,0,0,0.1421,0.1421,0.1459,0.1459,0.146,0.1517,0.1518,0.1519,0.1568,0.1569,0.157,0.1571,0.1647,0.1649,0.165,0,0,0,0,0,0,0,0,0,0,0,0,0,0.1453,0.1421,0.1458,0.1493,0.1496,0.1517,0.1518,0.1519,0.1568,0.1569,0.157,0.1571,0.1646,0.1648,0.1651,0.1645,0,0,0.1657,0.1658,0,0,0,0,0,0,0,0,0.1451,0.1454,0.1487,0.149,0.1495,0.1537,0.1533,0.1562,0.1568,0.154,0.157,0.1571,0.1612,0.1617,0.1624,0.1648,0.1652,0.1657,0.1659,0.166,0.166,0,0,0,0,0,0,0,0.1449,0.1452,0.1481,0.1488,0.1492,0.1516,0.1521,0.1539,0.1569,0.1542,0.1546,0.1554,0.1614,0.1622,0.1627,0.1653,0.1657,0.1659,0.1661,0.1661,0.1773,0.1775,0,0,0,0,0,0,0.1441,0.145,0.1479,0.1483,0.1476,0.1516,0.1521,0.1522,0.1569,0.1577,0.1553,0.1556,0.1618,0.1624,0.163,0.1711,0.166,0.1662,0.1663,0.1771,0.1773,0.1775,0,0,0,0,0,0,0.1439,0.1442,0.1477,0.1469,0.1475,0.1515,0.1515,0.1522,0.1563,0.1577,0.1586,0.159,0.1619,0.1627,0.1678,0.1711,0.1663,0.1665,0.1769,0.1772,0.1774,0.182,0,0,0,0,0,0,0.1438,0.1441,0.1455,0.1468,0.1475,0.1512,0.1515,0.1523,0.1565,0.157,0.1611,0.1617,0.162,0.1675,0.168,0.1714,0.1666,0.1767,0.1771,0.1773,0.1816,0.1823,0.183,0,0,0,0,0,0.1436,0.1447,0.1455,0.146,0.1487,0.1513,0.152,0.155,0.1566,0.159,0.1621,0.1618,0.1698,0.1678,0.1684,0.1719,0.1766,0.177,0.1773,0.1813,0.1822,0.1829,0,0,0,0,0,0,0.1441,0.1453,0.1462,0.1478,0.1505,0.1523,0.1552,0.1568,0.161,0.1627,0.1637,0.1646,0.1704,0.1706,0.1683,0.1761,0.1732,0.1737,0.1761,0.1769,0.1776,0.1767,0.1668,0,0,0,0,0,0.1445,0.1459,0.1475,0.1494,0.1509,0.1536,0.1557,0.1578,0.1608,0.1629,0.1657,0.1688,0.1718,0.174,0.1765,0.1805,0.1805,0.1833,0.184,0.1845,0.1844,0.188,0.189,0.1787,0.1787,0.1787,0,0,0.1458,0.1464,0.1477,0.1497,0.1522,0.1548,0.1553,0.1596,0.1624,0.163,0.1691,0.1717,0.1735,0.1784,0.1809,0.1793,0.1875,0.185,0.1855,0.185,0.1885,0.1895,0.1904,0.179,0.1789,0.1789,0,0,0.1476,0.1493,0.1509,0.1531,0.1569,0.1582,0.1601,0.1638,0.1667,0.1718,0.1733,0.1779,0.1825,0.1844,0.1856,0.1915,0.1911,0.1932,0.1959,0.1995,0.2004,0.2011,0.2021,0.2028,0.1934,0.1934,0.1934,0,0.1494,0.1507,0.1522,0.1543,0.157,0.16,0.1631,0.1658,0.1711,0.174,0.1749,0.1833,0.185,0.19,0.1922,0.193,0.1943,0.1924,0.2003,0.201,0.2017,0.2025,0.2033,0.1937,0.1937,0.1936,0.1936,0,0.1511,0.154,0.1557,0.1587,0.1617,0.1655,0.1687,0.1731,0.177,0.1795,0.187,0.1896,0.1945,0.196,0.1958,0.202,0.2011,0.2008,0.1978,0.203,0.2035,0.2043,0.1941,0.194,0.1939,0.1938,0,0,0.1504,0.1558,0.1568,0.1593,0.1648,0.1669,0.1727,0.1779,0.1817,0.1877,0.1927,0.1985,0.2009,0.2025,0.2038,0.2063,0.2119,0.2059,0.206,0.2061,0.219,0.2046,0.204,0.2138,0.2139,0.2141,0.2173,0,0.1519,0.156,0.1588,0.1644,0.1672,0.1722,0.1765,0.182,0.1869,0.1922,0.1969,0.202,0.203,0.2059,0.2094,0.2114,0.2142,0.2109,0.2146,0.2146,0.2006,0.2045,0.2146,0.2178,0.218,0.2181,0.2182,0,0.1522,0.1549,0.1605,0.1669,0.1687,0.1729,0.1807,0.1849,0.1926,0.1966,0.2035,0.2065,0.2127,0.2118,0.2192,0.2176,0.2191,0.2197,0.2198,0.2051,0.2016,0.2118,0.2195,0.2194,0.2193,0.2192,0.2192,0,0.1491,0.1561,0.1606,0.163,0.1704,0.1751,0.1798,0.1875,0.1913,0.1999,0.2038,0.2114,0.2158,0.22,0.2231,0.2222,0.2291,0.2278,0.2161,0.2151,0.225,0.2242,0.2326,0.2326,0.2326,0.2326,0.2326,0,0.1474,0.1515,0.1602,0.1622,0.168,0.1742,0.1807,0.1864,0.1942,0.198,0.2063,0.2095,0.2185,0.2233,0.225,0.2225,0.2317,0.2163,0.2151,0.2268,0.2262,0.2255,0.2246,0.2327,0.2327,0.2327,0.2326,0,0.1429,0.1487,0.1544,0.1635,0.1667,0.1711,0.1806,0.184,0.1929,0.1982,0.2012,0.2105,0.2155,0.2221,0.2279,0.2231,0.2227,0.2199,0.2314,0.2309,0.2055,0.2049,0.2054,0.2049,0.2045,0.2042,0.2039,0,0.1402,0.143,0.154,0.1573,0.1622,0.1694,0.1733,0.1827,0.1857,0.1965,0.1975,0.206,0.2108,0.207,0.2155,0.2169,0.2153,0.2133,0.2089,0.204,0.2029,0.2029,0.2028,0.2033,0.2032,0.2031,0.2029,0,0.1354,0.1416,0.1462,0.1527,0.1583,0.1624,0.1691,0.1697,0.179,0.1886,0.1877,0.1889,0.1938,0.197,0.2001,0.2012,0.2131,0.2091,0.2099,0.2057,0.2014,0.2007,0.2011,0.2015,0.2018,0.2019,0.202,0,0.1331,0.1352,0.1422,0.1465,0.1528,0.1534,0.1576,0.1595,0.1628,0.1736,0.1729,0.1817,0.1907,0.1889,0.1919,0.1915,0.1884,0.1819,0.184,0.1857,0.1779,0.1695,0.1585,0,0,0,0,0,0.1297,0.1306,0.1346,0.1382,0.1437,0.1467,0.1534,0.1574,0.1659,0.1603,0.1655,0.1682,0.1694,0.1746,0.1703,0.1856,0.1913,0.18,0.1854,0.1938,0.1954,0.1882,0,0,0,0,0,0,0.1273,0.1315,0.1319,0.13,0.1305,0.1344,0.1381,0.1439,0.1407,0.15,0.1515,0.1584,0.163,0.1703,0.1673,0.1691,0.169,0.186,0.1856,0.1929,0.1943,0.1956,0.1888,0,0,0,0,0]},{"header":{"parameterUnit":"m.s-1","parameterCategory":2,"la1":30.2991,"la2":30.254,"lo1":-89.0895,"lo2":-89.0444,"dy":0.0017,"dx":0.0017,"nx":28,"ny":28,"refTime":"2024-04-29T03:00:00:Z","depth":"4","parameterNumber":3,"parameterNumberName":"V-component_of_CURRENTS"},"data":[0,0,0,0,0,0,0,0,0,0,0,0,0,0,0,0,0,0,0,0,0,0,0,0,0,0,0,0,0,0,0,0,0,0,0,0,0,0,0,0,0,0,0,0,0,0,0,0,0,0,0,0,0,0,0,0,0,0,0.0086,0.0086,0,0.006,0.006,0.0059,0.0038,0.0037,0.0037,0.0037,0.0004,0.0003,0.0002,0,0,0,0,0,0,0,0,0,0,0,0,0,0.0088,0.0088,0.0086,0.0086,0.0086,0.006,0.006,0.0059,0.0038,0.0037,0.0037,0.0037,0.0004,0.0003,0.0002,0,0,0,0,0,0,0,0,0,0,0,0,0,0.0076,0.0088,0.0086,0.0072,0.0071,0.006,0.006,0.0059,0.0038,0.0037,0.0037,0.0037,0.0004,0.0003,0.0002,-0.0,0,0,-0.0002,-0.0002,0,0,0,0,0,0,0,0,0.0077,0.0076,0.0075,0.0073,0.0072,0.0053,0.0048,0.0039,0.0038,0.0049,0.0037,0.0037,0.002,0.0017,0.0012,-0.0002,-0.0003,-0.0002,-0.0002,-0.0003,-0.0003,0,0,0,0,0,0,0,0.0078,0.0077,0.0075,0.0074,0.0073,0.0057,0.0056,0.0046,0.0036,0.0048,0.0047,0.0045,0.0019,0.0013,0.0011,-0.0004,-0.0002,-0.0003,-0.0003,-0.0004,-0.0027,-0.0027,0,0,0,0,0,0,0.0085,0.0078,0.0076,0.0074,0.0075,0.0058,0.0056,0.0058,0.0036,0.0032,0.0046,0.0045,0.0015,0.0012,0.001,0.001,-0.0003,-0.0004,-0.0005,-0.0027,-0.0027,-0.0027,0,0,0,0,0,0,0.0085,0.0085,0.0077,0.0076,0.0074,0.0058,0.0061,0.0058,0.0053,0.0034,0.003,0.0045,0.0015,0.0011,0.0003,0.0009,-0.0004,-0.0005,-0.0027,-0.0027,-0.0027,0.0008,0,0,0,0,0,0,0.0085,0.0085,0.0089,0.0077,0.0074,0.0075,0.0061,0.0058,0.0053,0.0051,0.0032,0.0028,0.0014,0.0005,0.0002,0.0007,-0.0006,-0.0027,-0.0027,-0.0027,0.0007,0.001,0.0012,0,0,0,0,0,0.0085,0.0095,0.0089,0.0089,0.008,0.0075,0.0073,0.006,0.0053,0.0054,0.004,0.0029,0.0004,0.0005,0.0001,0.0005,-0.0027,-0.0027,-0.0027,0.0006,0.0009,0.0012,0,0,0,0,0,0,0.0101,0.0094,0.0087,0.0095,0.0086,0.0072,0.0073,0.0063,0.0052,0.0052,0.0031,0.0027,0.0021,0.0008,0.0009,-0.0002,-0.0015,-0.0015,0.0012,0.0015,0.0017,0.0026,-0.0007,0,0,0,0,0,0.0106,0.0111,0.0099,0.0106,0.0103,0.0088,0.0084,0.0076,0.0065,0.006,0.0046,0.0031,0.0019,0.0013,0.0,-0.0004,-0.0018,-0.0005,-0.0002,-0.0,0.0004,-0.0013,-0.0011,-0.0027,-0.0027,-0.0027,0,0,0.0115,0.0111,0.0114,0.0109,0.0102,0.0101,0.0085,0.0084,0.0084,0.0059,0.0055,0.0039,0.0019,0.0014,0.001,0.0004,-0.0004,0.0,0.0002,0.0005,-0.0012,-0.0011,-0.0009,-0.0027,-0.0027,-0.0027,0,0,0.0132,0.0131,0.0136,0.0131,0.0123,0.0115,0.0117,0.0103,0.0098,0.0092,0.0073,0.0061,0.0044,0.003,0.0021,0.0028,0.0009,0.0024,0.0044,0.0028,0.0029,0.003,0.0013,0.0012,0.0025,0.0025,0.0025,0,0.0141,0.0145,0.0138,0.0139,0.0138,0.0124,0.0128,0.0122,0.0107,0.0107,0.0096,0.0071,0.0051,0.0045,0.0045,0.0034,0.0022,0.0036,0.0031,0.0032,0.0032,0.0015,0.0013,0.0027,0.0027,0.0026,0.0026,0,0.0155,0.0158,0.0163,0.016,0.016,0.0163,0.0154,0.0153,0.0145,0.0137,0.013,0.0103,0.009,0.0079,0.0063,0.0058,0.0048,0.0037,0.0027,0.0036,0.0017,0.0015,0.0029,0.0029,0.0028,0.0028,0,0,0.0172,0.0172,0.0173,0.0176,0.0171,0.0175,0.0179,0.0179,0.0189,0.0169,0.0175,0.0146,0.0135,0.0124,0.0102,0.0084,0.0072,0.0065,0.0063,0.0053,0.0037,0.0031,0.0027,0.0062,0.0062,0.0062,0.0023,0,0.0181,0.019,0.0188,0.0201,0.0204,0.02,0.0209,0.021,0.0208,0.0211,0.0185,0.0182,0.0152,0.0148,0.0127,0.009,0.0068,0.0083,0.0026,0.0024,0.0021,0.0026,0.0062,0.0021,0.0021,0.002,0.002,0,0.0187,0.0194,0.0207,0.0222,0.0225,0.0235,0.0252,0.0259,0.0262,0.0261,0.0253,0.0235,0.0212,0.0182,0.0126,0.0139,0.0091,0.0056,0.0053,0.0034,0.0014,0.0008,0.0016,0.0016,0.0016,0.0017,0.0017,0,0.0194,0.0207,0.0221,0.0224,0.0239,0.0252,0.0264,0.0276,0.0292,0.0296,0.0309,0.0277,0.0269,0.0209,0.014,0.0133,0.0075,0.0054,0.0,-0.0001,0.0001,0.0001,0.0006,0.0006,0.0006,0.0006,0.0006,0,0.0197,0.021,0.0229,0.0237,0.0266,0.0272,0.0306,0.0314,0.0335,0.0363,0.034,0.0349,0.0276,0.0235,0.0159,0.0082,0.0089,0.0006,-0.001,0.0016,0.0018,-0.0,-0.0001,0.0005,0.0005,0.0006,0.0006,0,0.0196,0.0207,0.0227,0.0254,0.0269,0.029,0.0335,0.036,0.0381,0.0416,0.0421,0.0406,0.0359,0.028,0.0185,0.0115,0.0032,-0.0002,0.0039,0.0026,-0.004,-0.0038,-0.0066,-0.0067,-0.0067,-0.0068,-0.0068,0,0.0192,0.0203,0.0241,0.0262,0.0277,0.0315,0.0345,0.0377,0.0407,0.045,0.0466,0.0444,0.0419,0.029,0.0199,0.006,0.0031,-0.002,-0.0041,-0.0034,-0.0047,-0.0044,-0.0042,-0.0069,-0.0069,-0.0069,-0.0069,0,0.0186,0.0203,0.0223,0.0266,0.0303,0.0344,0.0389,0.0416,0.0461,0.0486,0.0502,0.0446,0.0398,0.0294,0.0194,0.0089,0.001,-0.0026,-0.0026,-0.0046,-0.0037,-0.0049,-0.0046,-0.0071,-0.007,-0.007,-0.007,0,0.0182,0.0193,0.0224,0.0262,0.0309,0.0353,0.0384,0.0424,0.0458,0.0507,0.0511,0.0467,0.0446,0.0309,0.0215,0.0119,0.008,0.0022,0.0019,0.0019,0.0052,0.0076,0.0067,0,0,0,0,0,0.0174,0.0182,0.0216,0.0256,0.0305,0.0331,0.0402,0.0433,0.0485,0.0497,0.0506,0.046,0.0344,0.0302,0.0203,0.0187,0.0051,0.0064,-0.002,-0.0079,-0.0078,-0.0055,0,0,0,0,0,0,0.0164,0.0189,0.0204,0.0244,0.0267,0.0321,0.0366,0.0407,0.0417,0.046,0.0406,0.0402,0.0293,0.0392,0.0187,0.0163,0.0088,0.0021,0.0018,-0.008,-0.0079,-0.0077,-0.0053,0,0,0,0,0]}]]